Terug naar catalogus

QIANFAN-229

ActiefCommunicatiePO
NORAD 69858·PAYLOAD·🇨🇳 China

Gelanceerd Jul 5, 2026 vanaf Wenchang Space Launch Site

Loading…

Volgende Passages (komende 24 uur)

TLE

VersSource: Space-Track

Epoch: Sep 14, 2026, 11:12 UTC

1 69858U 26155L   26257.46703060 -.01820852  00000-0 -29475+1 0  9998
2 69858  89.0078  54.3065 0038590  30.5404 329.7984 13.52244598  9929

Volg QIANFAN-229 in realtime met AllMySat

Download on the App Store